Date,TemperatureHighF,TemperatureAvgF,TemperatureLowF,DewpointHighF,DewpointAvgF,DewpointLowF,HumidityHigh,HumidityAvg,HumidityLow,PressureMaxIn,PressureMinIn,WindSpeedMaxMPH,WindSpeedAvgMPH,GustSpeedMaxMPH,PrecipitationSumIn
2013-2-1,69.5,49.7,33.3,37.2,30.9,25.8,76,53,25,30.21,30.10,5,1,6,0.00
2013-2-2,73.3,53.1,35.6,36.7,32.3,27.2,72,49,21,30.24,30.09,4,1,6,0.00
2013-2-3,69.1,58.3,49.7,39.8,37.1,34.3,64,47,29,30.13,29.96,5,1,6,0.00
2013-2-4,69.5,56.6,46.1,43.3,39.1,36.5,71,53,35,30.04,29.94,5,1,6,0.00
2013-2-5,71.8,56.0,41.6,45.6,39.3,33.6,77,56,33,30.03,29.91,7,1,8,0.00
2013-2-6,69.8,56.0,44.3,45.3,38.7,34.9,75,55,33,30.04,29.92,8,1,9,0.00
2013-2-7,68.0,53.5,40.3,42.9,34.9,29.0,74,52,30,30.12,29.96,8,1,8,0.00
2013-2-8,68.4,54.8,41.0,36.6,28.8,22.2,68,41,18,29.96,29.80,11,2,12,0.00
2013-2-9,54.2,46.4,37.8,38.1,30.1,24.7,80,55,34,30.02,29.81,10,2,13,0.07
2013-2-10,56.3,42.4,29.5,31.3,25.1,22.5,78,54,28,30.03,29.91,7,1,7,0.00
2013-2-11,53.6,39.1,29.0,35.5,29.4,21.4,82,69,41,30.13,29.95,10,1,10,0.19
2013-2-12,51.8,41.9,32.2,36.6,31.5,27.1,85,68,46,30.24,30.12,6,1,7,0.02
2013-2-13,59.2,47.2,31.3,32.5,27.7,22.9,79,50,25,30.18,30.05,5,1,7,0.00
2013-2-14,64.1,46.7,30.6,33.3,28.3,23.9,79,53,27,30.13,30.01,7,1,7,0.00
2013-2-15,72.4,52.6,37.1,37.5,26.6,16.8,76,44,13,30.22,30.11,11,2,14,0.00
2013-2-16,74.2,60.8,40.7,24.0,16.6,11.7,48,20,8,30.22,30.00,14,5,17,0.00
2013-2-17,72.7,54.5,36.0,25.7,18.5,12.2,51,28,9,30.00,29.85,11,2,11,0.00
2013-2-18,70.2,52.3,35.1,29.4,21.9,18.6,56,34,15,30.06,29.92,6,1,7,0.00
2013-2-19,70.4,55.1,39.4,30.8,22.3,14.6,55,32,13,29.94,29.73,12,3,13,0.00
2013-2-20,53.8,43.7,35.5,37.3,32.5,29.0,82,66,40,29.94,29.72,10,3,18,0.22
2013-2-21,55.6,44.3,35.3,37.7,33.4,30.3,84,67,45,30.03,29.92,6,1,8,0.27
2013-2-22,55.4,46.1,37.4,39.3,33.0,27.6,81,62,40,30.12,29.97,8,2,9,0.00
2013-2-23,63.9,46.6,31.0,33.8,28.7,24.8,81,54,23,30.12,29.84,7,1,7,0.00
2013-2-24,51.1,43.5,34.9,32.9,21.4,8.3,78,46,18,30.06,29.80,16,4,18,0.00
2013-2-25,57.8,43.2,28.6,24.4,20.5,15.6,65,42,23,30.19,30.02,8,1,8,0.00
2013-2-26,62.6,45.2,29.2,29.2,22.1,17.6,71,44,20,30.06,29.94,14,2,14,0.00
2013-2-27,63.2,46.7,30.8,25.4,18.3,8.9,65,37,13,30.19,30.06,11,2,11,0.00
2013-2-28,66.2,47.8,29.7,24.3,18.5,15.5,62,35,15,30.27,30.15,9,1,10,0.00